User: anonymous
Location: Unspecified
(0.0000°N, 0.0000°E)
Time: 19:19:38
(UTC+02:00)
Language:

ARIANE 5 R/B - Orbit

View from above orbital plane
View from above orbital plane
View from above satellite
View from above satellite

Ground track
Ground track

The orbit data is extracted from the following two-line orbital elements,

1 27387U 02009B   14234.97658769  .00000036  00000-0  26837-4 0  2452
2 27387 098.3200 195.4038 0031646 331.3269 068.6176 14.35728817653855
Epoch (UTC): 22 August 2014 23:26:17
Eccentricity: 0.0031646
inclination: 98.3200°
perigee height: 750 km
apogee height: 795 km
right ascension of ascending node: 195.4038°
argument of perigee: 331.3269°
revolutions per day: 14.35728817
mean anomaly at epoch: 68.6176°
orbit number at epoch: 65385

The dashed part of the orbit path shows where the satellite is in the earth's shadow,  

DLR